Location: Newark
(25.6667°N, 138.4167°E)
Time: 12:09:19
(UTC+00:00)

N. Korean satellite - Pass Details

Date: 22 September 2019
Orbit: 455 x 508 km, 97.2° (Epoch: 20 October)

Event Time Altitude Azimuth Distance (km) Brightness Sun altitude
Rises 19:55:26 0° 29° (NNE) 2,469 10.7 -9.7°
Reaches altitude 10° 19:57:49 10° 46° (NE) 1,596 10.0 -9.2°
Maximum altitude 20:00:28 21° 97° (E) 1,080 9.5 -8.6°
Drops below altitude 10° 20:03:08 10° 149° (SSE) 1,603 9.6 -8.0°
Sets 20:05:32 0° 165° (SSE) 2,482 10.3 -7.5°
